GW6253 Weather Reports


time (UTC)temp
C
wind
direction
speed
KPH
gust
KPH
rain 1hr
cm
rain 24hr
cm
rain mn
cm
humidity
%
barometer
mb
20260508024157 19 297 4.8 8.0 0.00 0.00 0.00 59 1016.0
20260508023656 19 296 4.8 9.7 0.00 0.00 0.00 58 1016.0
20260508023156 19 288 6.4 9.7 0.00 0.00 0.00 57 1016.0
20260508022659 20 311 3.2 6.4 0.00 0.00 0.00 57 1016.0
20260508022156 20 321 3.2 4.8 0.00 0.00 0.00 56 1016.0
20260508021656 20 310 3.2 8.0 0.00 0.00 0.00 55 1016.0
20260508021156 21 283 3.2 8.0 0.00 0.00 0.00 54 1016.0
20260508020656 21 301 1.6 4.8 0.00 0.00 0.00 53 1016.0
20260508020156 21 321 3.2 6.4 0.00 0.00 0.00 53 1016.0
20260508015656 21 316 3.2 6.4 0.00 0.00 0.00 53 1016.0
20260508015156 21 314 3.2 6.4 0.00 0.00 0.00 52 1016.0
20260508014656 21 300 4.8 8.0 0.00 0.00 0.00 52 1016.0
20260508014156 21 329 4.8 9.7 0.00 0.00 0.00 52 1016.0
20260508013658 21 310 4.8 8.0 0.00 0.00 0.00 51 1016.0
20260508013157 22 327 6.4 9.7 0.00 0.00 0.00 51 1016.0
20260508012656 22 250 1.6 4.8 0.00 0.00 0.00 56 1016.0
20260508012157 22 224 0.0 3.2 0.00 0.00 0.00 55 1016.0
20260508011656 22 183 0.0 1.6 0.00 0.00 0.00 55 1016.0
20260508011156 22 42 1.6 3.2 0.00 0.00 0.00 55 1016.0
20260508010656 22 212 1.6 3.2 0.00 0.00 0.00 55 1016.0
20260508010158 22 90 1.6 3.2 0.00 0.00 0.00 53 1016.0
20260508005656 22 7 1.6 4.8 0.00 0.00 0.00 54 1016.0
20260508005158 22 128 3.2 8.0 0.00 0.00 0.00 53 1016.0
20260508004656 22 20 3.2 6.4 0.00 0.00 0.00 53 1016.0
20260508004156 22 53 6.4 9.7 0.00 0.00 0.00 52 1016.0
20260508003656 22 56 3.2 8.0 0.00 0.00 0.00 53 1016.0
20260508003156 22 46 3.2 6.4 0.00 0.00 0.00 53 1016.0
20260508002656 22 26 4.8 9.7 0.00 0.00 0.00 52 1016.0
20260508002156 22 53 3.2 6.4 0.00 0.00 0.00 53 1016.0
20260508001657 22 49 3.2 6.4 0.00 0.00 0.00 53 1016.0
20260508001156 22 44 3.2 6.4 0.00 0.00 0.00 53 1016.0
20260508000656 22 176 3.2 8.0 0.00 0.00 0.00 54 1016.0
20260508000156 22 30 8.0 11.3 0.00 0.00 0.00 52 1016.0
20260507235657 22 65 6.4 9.7 0.00 0.00 0.00 50 1016.0
20260507235156 22 192 3.2 4.8 0.00 0.00 0.00 51 1016.0
20260507234656 22 188 6.4 11.3 0.00 0.00 0.00 50 1016.0
20260507234156 22 17 1.6 6.4 0.00 0.00 0.00 50 1017.0
20260507233656 22 185 6.4 11.3 0.00 0.00 0.00 50 1017.0
20260507233156 22 46 3.2 6.4 0.00 0.00 0.00 49 1017.0
20260507232656 23 35 4.8 8.0 0.00 0.00 0.00 48 1017.0
20260507232156 22 355 1.6 4.8 0.00 0.00 0.00 49 1017.0
20260507231656 22 60 0.0 3.2 0.00 0.00 0.00 50 1017.0
20260507231156 22 49 4.8 6.4 0.00 0.00 0.00 50 1017.0
20260507230656 22 27 4.8 8.0 0.00 0.00 0.00 49 1017.0
20260507230157 22 193 4.8 6.4 0.00 0.00 0.00 49 1017.0
20260507225656 22 52 3.2 6.4 0.00 0.00 0.00 49 1017.0
20260507225156 22 50 3.2 9.7 0.00 0.00 0.00 49 1017.0
20260507224657 22 35 3.2 4.8 0.00 0.00 0.00 49 1017.0
20260507224157 21 23 4.8 6.4 0.00 0.00 0.00 50 1017.0
20260507223656 21 8 4.8 6.4 0.00 0.00 0.00 50 1017.0
20260507223157 22 60 3.2 6.4 0.00 0.00 0.00 50 1018.0
20260507222656 21 32 4.8 8.0 0.00 0.00 0.00 50 1018.0
20260507222156 21 46 3.2 6.4 0.00 0.00 0.00 51 1018.0
20260507221656 21 62 3.2 6.4 0.00 0.00 0.00 51 1018.0
20260507221158 21 191 1.6 4.8 0.00 0.00 0.00 52 1018.0
20260507220657 21 163 3.2 4.8 0.00 0.00 0.00 51 1018.0
20260507220156 21 35 3.2 4.8 0.00 0.00 0.00 52 1018.0
20260507215656 21 8 3.2 6.4 0.00 0.00 0.00 52 1018.0
20260507215156 20 139 1.6 3.2 0.00 0.00 0.00 54 1018.0
20260507214656 20 228 3.2 4.8 0.00 0.00 0.00 53 1018.0
20260507214157 20 158 3.2 6.4 0.00 0.00 0.00 54 1018.0
20260507213656 20 227 3.2 4.8 0.00 0.00 0.00 55 1018.0
20260507213156 21 195 4.8 9.7 0.00 0.00 0.00 55 1018.0
20260507212657 21 90 3.2 8.0 0.00 0.00 0.00 54 1018.0
20260507212156 21 319 1.6 8.0 0.00 0.00 0.00 54 1018.0
20260507211656 20 354 3.2 6.4 0.00 0.00 0.00 54 1018.0
20260507211157 20 206 3.2 8.0 0.00 0.00 0.00 55 1018.0
20260507210657 20 37 3.2 8.0 0.00 0.00 0.00 56 1019.0
20260507210156 20 30 6.4 8.0 0.00 0.00 0.00 57 1019.0
20260507205657 19 324 3.2 6.4 0.00 0.00 0.00 58 1019.0
20260507205156 19 37 3.2 6.4 0.00 0.00 0.00 58 1019.0
20260507204656 20 342 3.2 6.4 0.00 0.00 0.00 58 1019.0
20260507204202 19 20 4.8 6.4 0.00 0.00 0.00 57 1019.0
20260507203656 18 250 1.6 4.8 0.00 0.00 0.00 58 1019.0
20260507203157 18 354 6.4 9.7 0.00 0.00 0.00 58 1019.0
20260507202657 18 8 8.0 11.3 0.00 0.00 0.00 60 1019.0
20260507202157 18 119 1.6 6.4 0.00 0.00 0.00 61 1019.0
20260507201657 18 40 6.4 9.7 0.00 0.00 0.00 61 1019.0
20260507200710 18 61 3.2 3.2 0.00 0.00 0.00 61 1019.0
20260507200156 18 171 9.7 12.9 0.00 0.00 0.00 61 1019.0
20260507195657 18 1 3.2 6.4 0.00 0.00 0.00 61 1019.0
20260507195156 18 154 3.2 6.4 0.00 0.00 0.00 59 1019.0
20260507194656 18 161 3.2 6.4 0.00 0.00 0.00 60 1019.0
20260507194157 17 343 1.6 3.2 0.00 0.00 0.00 62 1019.0
20260507193657 17 13 4.8 8.0 0.00 0.00 0.00 62 1019.0
20260507193157 17 0 6.4 11.3 0.00 0.00 0.00 62 1020.0
20260507192656 17 333 6.4 8.0 0.00 0.00 0.00 62 1020.0
20260507192157 17 9 1.6 6.4 0.00 0.00 0.00 62 1020.0
20260507191656 17 28 8.0 12.9 0.00 0.00 0.00 62 1020.0
20260507191157 17 113 3.2 9.7 0.00 0.00 0.00 63 1020.0
20260507190657 17 35 6.4 9.7 0.00 0.00 0.00 64 1020.0
20260507190156 17 356 9.7 16.1 0.00 0.00 0.00 63 1020.0
20260507185657 17 41 6.4 9.7 0.00 0.00 0.00 63 1020.0
20260507185157 16 234 3.2 6.4 0.00 0.00 0.00 65 1020.0
20260507184656 16 23 11.3 14.5 0.00 0.00 0.00 65 1020.0
20260507184156 16 344 3.2 8.0 0.00 0.00 0.00 65 1020.0
20260507183656 16 7 8.0 12.9 0.00 0.00 0.00 66 1020.0
20260507183156 16 55 6.4 12.9 0.00 0.00 0.00 65 1020.0
20260507182657 16 10 4.8 6.4 0.00 0.00 0.00 67 1020.0
20260507182156 16 338 3.2 6.4 0.00 0.00 0.00 67 1020.0
20260507181657 16 48 6.4 9.7 0.00 0.00 0.00 67 1020.0
20260507181204 16 34 1.6 4.8 0.00 0.00 0.00 68 1020.0
20260507180657 16 19 4.8 8.0 0.00 0.00 0.00 69 1020.0
20260507180156 15 10 8.0 12.9 0.00 0.00 0.00 68 1020.0
20260507175657 15 4 6.4 9.7 0.00 0.00 0.00 68 1020.0
20260507175157 16 345 3.2 6.4 0.00 0.00 0.00 66 1020.0
20260507174657 15 70 3.2 6.4 0.00 0.00 0.00 71 1020.0
20260507174157 15 24 8.0 12.9 0.00 0.00 0.00 72 1020.0
20260507173656 16 35 8.0 9.7 0.00 0.00 0.00 71 1020.0
20260507173156 16 86 3.2 4.8 0.00 0.00 0.00 70 1020.0
20260507172657 15 303 1.6 4.8 0.00 0.00 0.00 71 1020.0
20260507172158 15 22 3.2 4.8 0.00 0.00 0.00 74 1020.0
20260507171656 15 31 4.8 8.0 0.00 0.00 0.00 74 1020.0
20260507171156 14 56 4.8 8.0 0.00 0.00 0.00 75 1020.0
20260507170656 14 345 1.6 3.2 0.00 0.00 0.00 77 1020.0
20260507170157 13 0 4.8 6.4 0.00 0.00 0.00 78 1020.0
20260507165657 13 50 9.7 9.7 0.00 0.00 0.00 77 1020.0
20260507165157 13 26 6.4 8.0 0.00 0.00 0.00 78 1020.0
20260507164656 13 43 4.8 6.4 0.00 0.00 0.00 79 1020.0
20260507164156 13 27 6.4 8.0 0.00 0.00 0.00 79 1020.0
20260507163656 13 50 3.2 6.4 0.00 0.00 0.00 79 1020.0
20260507163156 13 9 3.2 3.2 0.00 0.00 0.00 79 1020.0
20260507162656 13 35 4.8 8.0 0.00 0.00 0.00 79 1020.0
20260507162156 13 31 3.2 4.8 0.00 0.00 0.00 79 1020.0
20260507161657 13 324 1.6 3.2 0.00 0.00 0.00 80 1020.0
20260507161157 13 12 4.8 6.4 0.00 0.00 0.00 81 1020.0
20260507160656 13 34 6.4 8.0 0.00 0.00 0.00 80 1020.0
20260507160157 13 32 3.2 4.8 0.00 0.00 0.00 80 1020.0
20260507155657 13 33 3.2 3.2 0.00 0.00 0.00 80 1020.0
20260507155158 13 38 6.4 6.4 0.00 0.00 0.00 80 1020.0
20260507154656 13 36 3.2 4.8 0.00 0.00 0.00 82 1020.0
20260507154157 13 40 3.2 3.2 0.00 0.00 0.00 83 1020.0
20260507153658 13 8 4.8 6.4 0.00 0.00 0.00 82 1020.0
20260507153157 12 359 3.2 3.2 0.00 0.00 0.00 83 1020.0
20260507152657 12 12 6.4 8.0 0.00 0.00 0.00 83 1020.0
20260507152156 12 6 3.2 3.2 0.00 0.00 0.00 84 1020.0
20260507151656 12 319 3.2 3.2 0.00 0.00 0.00 85 1020.0
20260507151158 12 345 3.2 3.2 0.00 0.00 0.00 85 1020.0
20260507150657 12 344 3.2 4.8 0.00 0.00 0.00 85 1021.0
20260507150158 12 332 3.2 6.4 0.00 0.00 0.00 85 1020.0
20260507145657 12 325 1.6 3.2 0.00 0.00 0.00 85 1020.0
20260507145158 12 336 1.6 3.2 0.00 0.00 0.00 86 1020.0
20260507144702 12 348 1.6 3.2 0.00 0.00 0.00 87 1020.0
20260507144156 12 336 3.2 4.8 0.00 0.00 0.00 87 1020.0
20260507143657 12 346 3.2 4.8 0.00 0.00 0.00 87 1020.0
20260507143157 12 347 1.6 3.2 0.00 0.00 0.00 88 1020.0
20260507142657 12 347 3.2 4.8 0.00 0.00 0.00 88 1020.0
20260507142157 12 339 3.2 4.8 0.00 0.00 0.00 88 1020.0
20260507141657 11 345 3.2 4.8 0.00 0.00 0.00 88 1020.0
20260507141156 11 332 1.6 3.2 0.00 0.00 0.00 89 1020.0
20260507140656 11 339 3.2 3.2 0.00 0.00 0.00 89 1020.0
20260507140157 11 347 1.6 3.2 0.00 0.00 0.00 89 1020.0
20260507135656 11 316 1.6 3.2 0.00 0.00 0.00 89 1020.0
20260507135156 11 340 3.2 3.2 0.00 0.00 0.00 89 1020.0
20260507134659 11 329 3.2 4.8 0.00 0.00 0.00 89 1020.0
20260507134158 11 341 3.2 3.2 0.00 0.00 0.00 89 1020.0
20260507133657 11 345 1.6 3.2 0.00 0.00 0.00 89 1020.0
20260507133156 11 348 1.6 3.2 0.00 0.00 0.00 88 1020.0
20260507132207 11 0 3.2 4.8 0.00 0.00 0.00 88 1020.0
20260507131656 11 3 3.2 4.8 0.00 0.00 0.00 88 1020.0
20260507131157 11 16 3.2 4.8 0.00 0.00 0.00 88 1020.0
20260507130657 11 11 3.2 6.4 0.00 0.00 0.00 88 1020.0
20260507130158 11 12 3.2 4.8 0.00 0.00 0.00 89 1020.0
20260507125656 11 9 3.2 6.4 0.00 0.00 0.00 89 1020.0
20260507125157 11 349 1.6 3.2 0.00 0.00 0.00 89 1020.0
20260507124657 11 352 1.6 3.2 0.00 0.00 0.00 89 1020.0
20260507124157 11 14 3.2 4.8 0.00 0.00 0.00 89 1020.0
20260507123656 11 1 1.6 3.2 0.00 0.00 0.00 89 1020.0
20260507123156 11 17 3.2 4.8 0.00 0.00 0.00 89 1020.0
20260507122657 11 1 3.2 3.2 0.00 0.00 0.00 89 1020.0
20260507122156 11 26 1.6 3.2 0.00 0.00 0.00 88 1020.0
20260507121656 11 13 3.2 3.2 0.00 0.00 0.00 88 1020.0
20260507121156 11 18 4.8 6.4 0.00 0.00 0.00 88 1020.0
20260507120658 11 22 6.4 8.0 0.00 0.00 0.00 88 1021.0
20260507120156 11 25 3.2 4.8 0.00 0.00 0.00 88 1021.0
20260507115656 11 10 6.4 8.0 0.00 0.00 0.00 87 1021.0
20260507115156 11 350 6.4 8.0 0.00 0.00 0.00 87 1020.0
20260507114656 11 9 4.8 4.8 0.00 0.00 0.00 88 1020.0
20260507114156 11 2 4.8 6.4 0.00 0.00 0.00 88 1020.0
20260507113656 11 0 3.2 3.2 0.00 0.00 0.00 88 1021.0
20260507113157 11 353 3.2 4.8 0.00 0.00 0.00 88 1021.0
20260507112656 11 5 6.4 6.4 0.00 0.00 0.00 88 1021.0
20260507112157 11 353 3.2 4.8 0.00 0.00 0.00 89 1021.0
20260507111656 11 348 3.2 3.2 0.00 0.00 0.00 88 1021.0
20260507111156 11 339 1.6 3.2 0.00 0.00 0.00 88 1021.0
20260507110657 11 331 1.6 3.2 0.00 0.00 0.00 88 1021.0
20260507110158 11 342 3.2 3.2 0.00 0.00 0.00 88 1021.0
20260507105659 11 348 1.6 3.2 0.00 0.00 0.00 87 1021.0
20260507105156 11 344 1.6 3.2 0.00 0.00 0.00 87 1021.0
20260507104656 11 332 1.6 3.2 0.00 0.00 0.00 87 1021.0
20260507104156 11 340 3.2 3.2 0.00 0.00 0.00 87 1021.0
20260507103656 11 338 1.6 3.2 0.00 0.00 0.00 87 1021.0
20260507103156 11 346 1.6 3.2 0.00 0.00 0.00 87 1021.0
20260507102656 11 350 1.6 3.2 0.00 0.00 0.00 87 1021.0
20260507102156 11 340 1.6 3.2 0.00 0.00 0.00 87 1021.0
20260507101657 11 329 1.6 3.2 0.00 0.00 0.00 86 1021.0
20260507101156 11 340 3.2 3.2 0.00 0.00 0.00 87 1021.0
20260507100656 11 348 3.2 3.2 0.00 0.00 0.00 87 1021.0
20260507100157 11 338 1.6 3.2 0.00 0.00 0.00 87 1021.0
20260507095656 11 332 3.2 3.2 0.00 0.00 0.00 86 1021.0
20260507095156 11 341 3.2 3.2 0.00 0.00 0.00 87 1021.0
20260507094656 11 340 1.6 3.2 0.00 0.00 0.00 87 1021.0
20260507094156 11 335 3.2 4.8 0.00 0.00 0.00 87 1021.0
20260507093657 11 319 3.2 4.8 0.00 0.00 0.00 87 1021.0
20260507093156 11 319 3.2 3.2 0.00 0.00 0.00 87 1021.0
20260507092656 11 319 3.2 3.2 0.00 0.00 0.00 87 1021.0
20260507092156 11 326 3.2 3.2 0.00 0.00 0.00 87 1021.0
20260507091657 11 331 3.2 3.2 0.00 0.00 0.00 87 1021.0
20260507091156 11 335 3.2 4.8 0.00 0.00 0.00 87 1021.0
20260507090656 11 334 1.6 3.2 0.00 0.00 0.00 88 1021.0
20260507090156 11 347 1.6 3.2 0.00 0.00 0.00 89 1021.0
20260507085656 11 348 1.6 3.2 0.00 0.00 0.00 89 1021.0
20260507085157 11 347 1.6 3.2 0.00 0.00 0.00 88 1021.0
20260507084656 11 341 3.2 3.2 0.00 0.00 0.00 88 1021.0
20260507084156 11 334 1.6 3.2 0.00 0.00 0.00 88 1021.0
20260507083656 11 340 3.2 3.2 0.00 0.00 0.00 88 1021.0
20260507083157 11 337 3.2 4.8 0.00 0.00 0.00 89 1021.0
20260507082656 11 324 1.6 4.8 0.00 0.00 0.00 89 1021.0
20260507082158 11 331 3.2 4.8 0.00 0.00 0.00 89 1021.0
20260507081656 11 341 3.2 3.2 0.00 0.00 0.00 89 1021.0
20260507081156 11 343 3.2 3.2 0.00 0.00 0.00 89 1021.0
20260507080656 11 338 0.0 3.2 0.00 0.00 0.00 89 1021.0
20260507080156 11 346 3.2 4.8 0.00 0.00 0.00 89 1021.0
20260507075656 11 336 1.6 3.2 0.00 0.00 0.00 88 1021.0
20260507075156 11 348 1.6 3.2 0.00 0.00 0.00 88 1021.0
20260507074656 11 337 1.6 3.2 0.00 0.00 0.00 88 1021.0
20260507074156 11 355 0.0 3.2 0.00 0.00 0.00 89 1021.0
20260507073658 11 337 1.6 3.2 0.00 0.00 0.00 88 1021.0
20260507073157 11 345 3.2 3.2 0.00 0.00 0.00 87 1021.0
20260507072656 11 304 1.6 3.2 0.00 0.00 0.00 87 1021.0
20260507072157 11 325 1.6 4.8 0.00 0.00 0.00 87 1021.0
20260507071656 11 339 1.6 3.2 0.00 0.00 0.00 86 1021.0
20260507071157 11 332 1.6 3.2 0.00 0.00 0.00 86 1021.0
20260507070659 11 328 1.6 3.2 0.00 0.00 0.00 86 1021.0
20260507070156 11 314 3.2 4.8 0.00 0.00 0.00 86 1021.0
20260507065657 11 332 3.2 3.2 0.00 0.00 0.00 86 1021.0
20260507065157 10 326 1.6 3.2 0.00 0.00 0.00 87 1021.0
20260507064656 10 327 1.6 3.2 0.00 0.00 0.00 87 1021.0
20260507064157 10 335 3.2 3.2 0.00 0.00 0.00 88 1021.0
20260507063656 10 334 3.2 3.2 0.00 0.00 0.00 88 1021.0
20260507063156 10 346 3.2 4.8 0.00 0.00 0.00 87 1021.0
20260507062657 10 338 1.6 3.2 0.00 0.00 0.00 87 1021.0
20260507062156 11 331 1.6 3.2 0.00 0.00 0.00 86 1021.0
20260507061657 11 324 3.2 3.2 0.00 0.00 0.00 85 1021.0
20260507061156 11 306 1.6 3.2 0.00 0.00 0.00 86 1021.0
20260507060656 11 315 1.6 3.2 0.00 0.00 0.00 85 1021.0
20260507060157 11 306 1.6 4.8 0.00 0.00 0.00 85 1021.0
20260507055656 11 328 6.4 11.3 0.00 0.00 0.00 86 1021.0
20260507055156 11 328 3.2 8.0 0.00 0.00 0.00 85 1021.0
20260507054656 11 304 3.2 4.8 0.00 0.00 0.00 85 1021.0
20260507054156 11 309 1.6 3.2 0.00 0.00 0.00 85 1021.0
20260507053658 11 325 3.2 3.2 0.00 0.00 0.00 85 1021.0
20260507053157 11 333 4.8 6.4 0.00 0.00 0.00 85 1021.0
20260507052656 11 321 3.2 6.4 0.00 0.00 0.00 85 1021.0
20260507052156 11 324 1.6 3.2 0.00 0.00 0.00 85 1021.0
20260507051657 11 313 3.2 6.4 0.00 0.00 0.00 85 1021.0
20260507051156 11 324 1.6 4.8 0.00 0.00 0.00 85 1021.0
20260507050657 11 321 1.6 3.2 0.00 0.00 0.00 85 1021.0
20260507050156 11 323 1.6 3.2 0.00 0.00 0.00 85 1021.0
20260507045656 11 306 3.2 6.4 0.00 0.00 0.00 85 1021.0
20260507045156 11 332 3.2 6.4 0.00 0.00 0.00 85 1021.0
20260507044656 11 311 1.6 4.8 0.00 0.00 0.00 84 1021.0
20260507044156 11 291 3.2 6.4 0.00 0.00 0.00 84 1021.0
20260507043657 11 290 1.6 3.2 0.00 0.00 0.00 84 1021.0
20260507043157 11 315 1.6 4.8 0.00 0.00 0.00 84 1021.0
20260507042658 11 318 1.6 3.2 0.00 0.00 0.00 84 1021.0
20260507042156 11 312 1.6 3.2 0.00 0.00 0.00 84 1021.0
20260507041656 11 319 1.6 4.8 0.00 0.00 0.00 84 1021.0
20260507041157 11 312 1.6 4.8 0.00 0.00 0.00 84 1021.0
20260507040403 11 314 1.6 3.2 0.00 0.00 0.00 84 1021.0
20260507035656 11 297 3.2 9.7 0.00 0.00 0.00 84 1021.0
20260507035156 12 304 3.2 6.4 0.00 0.00 0.00 84 1021.0
20260507034657 12 315 3.2 4.8 0.00 0.00 0.00 83 1021.0
20260507034156 12 301 1.6 3.2 0.00 0.00 0.00 84 1020.0
20260507033657 12 299 1.6 3.2 0.00 0.00 0.00 83 1020.0
20260507033157 12 317 1.6 4.8 0.00 0.00 0.00 84 1020.0
20260507032656 12 308 1.6 3.2 0.00 0.00 0.00 83 1020.0
20260507032156 12 311 1.6 4.8 0.00 0.00 0.00 83 1020.0
20260507031657 12 326 3.2 4.8 0.00 0.00 0.00 83 1020.0
20260507031157 12 335 1.6 3.2 0.00 0.00 0.00 82 1020.0
20260507030656 12 309 3.2 8.0 0.00 0.00 0.00 82 1020.0
20260507030157 12 340 3.2 8.0 0.00 0.00 0.00 82 1020.0
20260507025656 12 306 1.6 3.2 0.00 0.00 0.00 81 1020.0
20260507025157 13 286 1.6 3.2 0.00 0.00 0.00 81 1020.0
20260507024656 13 281 3.2 9.7 0.00 0.00 0.00 80 1020.0